Location: Drocourt
(49.0571°N, 1.7669°E)
Time: 20:35:26
(UTC+00:00)

Explorer 11/Cluster Stage 4 - All Passes

Search period start: 12 April 2024 00:00
Search period end: 22 April 2024 00:00
Orbit: 465 x 1220 km, 28.8° (Epoch: 11 April)

Date Brightness Start Highest point End Pass type
(mag) Time Alt. Az. Time Alt. Az. Time Alt. Az.
12 Apr - 04:27:09 10° S 04:29:52 12° SSE 04:32:41 10° SE visible
12 Apr - 06:12:48 10° SW 06:17:02 16° S 06:21:24 10° SSE daylight
12 Apr - 08:01:38 10° SW 08:04:16 12° SSW 08:06:55 10° S daylight
13 Apr - 04:09:52 10° S 04:12:26 12° SSE 04:15:07 10° SE visible
13 Apr - 05:55:33 10° SSW 05:59:35 15° S 06:03:46 10° SSE daylight
13 Apr - 07:44:39 10° SSW 07:46:48 11° SSW 07:48:57 10° S daylight
14 Apr - 03:52:41 10° S 03:55:02 12° SSE 03:57:29 10° SE visible
14 Apr - 05:38:23 10° SSW 05:42:08 15° S 05:46:04 10° SSE daylight
14 Apr - 07:28:03 10° SSW 07:29:20 10° SSW 07:30:38 10° S daylight
15 Apr - 03:35:36 10° S 03:37:38 11° SSE 03:39:45 10° SSE visible
15 Apr - 05:21:18 10° SSW 05:24:42 14° S 05:28:18 10° SSE daylight
16 Apr - 03:18:41 10° S 03:20:16 11° SSE 03:21:53 10° SSE visible
16 Apr - 05:04:19 10° SSW 05:07:17 13° S 05:10:25 10° SSE daylight
17 Apr - 03:02:05 10° S 03:02:54 10° SSE 03:03:43 10° SSE visible
17 Apr - 04:47:29 10° SSW 04:49:53 12° S 04:52:24 10° SSE daylight
18 Apr - 04:30:54 10° SSW 04:32:29 11° S 04:34:09 10° S daylight
